COSMOS 252 DEB, 3549

Orbit data source: Space-Track

COSMOS 252 DEB, 3549 is space debris in LEO originally from a launch on Fri, 01 Nov 1968 UTC launched from the Tyuratam Missile And Space Complex (TTMTR). Debris objects in space refer to the collection of defunct objects orbiting the Earth. Examples of debris include non-operational satellites, rocket bodies, and fragments generated from explosions, collisions, or faulty payload assembly.

Loading next visibility...
Identifier
3549, 1968-097B
Orbit
LEO
Country
Flag of CISCIS
Related business
Manufacturer
Unknown
Mission
Spacecraft
Bus & Motor
Unknown
Mass
Unknown
Launch date (UTC)
1968-11-01 (57 years ago)
Launch vehicle
Unknown
Launch site
Tyuratam Missile And Space Complex (TTMTR)
Object type
Payload
Rocket body
Debris
Shape & HBR
Unknown shape, 0.1 m
Radar Cross Section
Small (<0.1 m²)

Expand to show TLE details & history
Last TLE update: 21 hours ago

TLE from 21 hours ago
0 COSMOS 252 DEB
1  3549U 68097B   25297.24050666  .00014383  00000-0  17536-2 0  9998
2  3549  62.3015 255.0145 0266607 275.9238  81.1510 14.61486496835488
Epoch: 2025-10-24T05:46Z
TLE epoch observation values (Epoch: 2025-10-24T05:46:19.775Z)
Latitude
-0.00001°
Longitude
135.54386°
Altitude
666.095 km
Speed
7.538 km/s
True Right ascension
17h 00m 03s
True Declination
0° 00' 00"
Sunlit
Object was in daylight at epoch
Visualization orbit readout
Latitude
Unknown
Longitude
Unknown
Altitude
Unknown
Speed
Unknown
Apparent Right ascension
Unknown
Apparent Declination
Unknown
Sunlit
N/A
Visualization observer readout
Local Sidereal Time
22:01:30
Azimuth
Unknown
Elevation
Unknown
Doppler factor
Unknown
Orbital elements
Apogee altitude
875.654 km
Perigee altitude
498.916 km
Semi-major axis
7,065.422 km
Eccentricity
0.02666
Inclination
62.3015°
RAAN
255.0145°
Arg. of periapsis
275.9238°
True anomaly
84.18386°
Mean anomaly
81.151°
Eccentric anomaly
82.66605°
Mean motion
3.65457 °/min
Orbital period
98.51 mins
BSTAR
0.0017536
Loading maneuver chart data...
Computing Atmospheric mass density...

Documentation

Showing up to 5 results
|